Flag for Switzerland Weather past 2 weeks in Bellinzona, Ticino, Switzerland

Now
70 °F

Mild.


Feels Like: 70 °F
Forecast: 47 / 59 °F
Wind: 2 mph from Southwest

Location: Locarno-Magadino

Current Time: Oct 21, 2014 at 4:52:43 PM

Latest Report: Oct 21, 2014 at 4:00 PM


Visibility: N/A

Pressure: 29.78 "Hg

Humidity: 64%

Dew point: 57 °F

Location of BellinzonaLocation

Historic Weather in Bellinzona — Graph

°F

Bellinzona temperature yesterday

Maximum temperature yesterday: 69 °F (at 3:00 PM)
Minimum temperature yesterday: 52 °F (at 5:00 AM)
Average temperature yesterday: 60 °F

Past Weeks' High & Low Weather Summary

 TemperatureHumidityPressure
High72 °F (Oct 17, 4:00 PM)100% (Oct 9, 3:00 AM)30.33 "Hg (Oct 9, 3:00 AM)
Low47 °F (Oct 18, 8:00 AM)52% (Oct 18, 4:00 PM)29.78 "Hg (Oct 15, 4:00 PM)
Average60 °F91%30.03 "Hg
* Reported Oct 6 3:00 PM — Oct 21 3:00 PM, Bellinzona, Weather by CustomWeather, © 2014

Note: Actual official high and low records may vary slightly from our data, if they occured in-between our weather recording intervals... More about our weather records

Advertising

Bellinzona weather history for previous 24 hours

 ConditionsComfort  
Time TempWeatherWind HumidityBarometerVisibility
3:00 PM
Oct 21
69 °FMild.5 mph65%29.82 "HgN/A
2:00 PM68 °FMild.2 mph65%29.83 "HgN/A
1:00 PM65 °FMild.2 mph76%29.90 "HgN/A
12:00 PM64 °FMild.1 mph80%29.93 "HgN/A
11:00 AM63 °FMild.1 mph82%29.94 "HgN/A
10:00 AM61 °FCool.1 mph90%29.95 "HgN/A
9:00 AM57 °FCool.No wind98%29.96 "HgN/A
8:00 AM56 °FCool.No wind98%29.95 "HgN/A
7:00 AM54 °FCool.1 mph99%29.95 "HgN/A
6:00 AM55 °FCool.1 mph99%29.96 "HgN/A
5:00 AM56 °FCool.1 mph98%29.97 "HgN/A
4:00 AM59 °FCool.3 mph91%29.99 "HgN/A
3:00 AM58 °FCool.1 mph98%30.01 "HgN/A
2:00 AM60 °FCool.2 mph95%30.04 "HgN/A
1:00 AM60 °FCool.2 mph92%30.04 "HgN/A
12:00 AM60 °FCool.2 mph95%30.05 "HgN/A
11:00 PM
Oct 20
61 °FCool.1 mph96%30.07 "HgN/A
10:00 PM61 °FCool.1 mph95%30.07 "HgN/A
9:00 PM61 °FCool.No wind96%30.08 "HgN/A
8:00 PM60 °FCool.No wind95%30.08 "HgN/A
7:00 PM61 °FCool.No wind93%30.08 "HgN/A
6:00 PM65 °FMild.No wind77%30.08 "HgN/A
5:00 PM67 °FMild.1 mph72%30.08 "HgN/A
4:00 PM68 °FMild.3 mph66%30.09 "HgN/A
Weather by CustomWeather, © 2014

See weather overviewHow to use our weather pages